Regional Weather Roundup
Issued by NWS

Home | Current Version | Previous Version | Graphics & Text | Print | Product List | Glossary On
Versions: 1 2 3 4 5 6 7 8 9 10 11 12 13 14 15 16 17 18 19 20 21 22 23 24 25 26 27 28 29 30 31 32 33 34 35 36 37 38 39 40 41 42 43 44 45 46 47 48 49 50
754
ASUS45 KBOI 081610
RWRID

IDAHO REGIONAL WEATHER ROUNDUP
NATIONAL WEATHER SERVICE BOISE ID
900 AM MST MON FEB 08 2016

NOTE: "FAIR" INDICATES FEW OR NO CLOUDS BELOW 12000 FEET
WITH NO SIGNIFICANT WEATHER AND/OR OBSTRUCTIONS TO VISIBILITY

IDZ012-014-081700-
SOUTHWEST IDAHO


CITY           SKY/WX    TMP DP  RH WIND       PRES   REMARKS
BOISE          CLEAR     32  28  85 SE3       30.69R
CALDWELL       CLEAR     31  29  92 CALM      30.73R
MOUNTAIN HOME  SUNNY     31  31 100 E14       30.70R WCI  20
$$

IDZ016-017-081700-
SOUTHCENTRAL IDAHO


CITY           SKY/WX    TMP DP  RH WIND       PRES   REMARKS
BURLEY         CLOUDY    27  26  96 NE10      30.68R FOG     WCI  17
JEROME         CLOUDY    27  25  92 NE16      30.70R FOG     WCI  15
TWIN FALLS     SUNNY     27  25  92 E9        30.68R FOG     WCI  18
$$

IDZ019>023-081700-
SOUTHEAST IDAHO


CITY           SKY/WX    TMP DP  RH WIND       PRES   REMARKS
IDAHO FALLS    FOG       22  20  92 N7        30.74R VSB 1   WCI  13
POCATELLO      CLOUDY    24  23  96 NE6       30.73R FOG     WCI  17
REXBURG        CLOUDY    23  22  96 CALM      30.72R FOG
$$

IDZ006-010-011-018-031-032-081700-
CENTRAL IDAHO MOUNTAINS


CITY           SKY/WX    TMP DP  RH WIND       PRES   REMARKS
MCCALL         FOG       16  12  84 CALM      30.64S VSB 3/4
HAILEY         MOSUNNY   19  16  86 N5        30.68R WCI  13
STANLEY          N/A      5   1  83 CALM      30.72R
SALMON         CLOUDY    25  18  74 CALM      30.74R
CHALLIS        SUNNY      8   6  92 CALM      30.72R
$$

IDZ002-004-006-007-026-081700-
NORTHERN IDAHO


CITY           SKY/WX    TMP DP  RH WIND       PRES   REMARKS
LEWISTON       PTCLDY    35  30  82 E5        30.63S WCI  31
LOWELL           N/A     33  30  88 N3        30.72S
COEUR D`ALENE  NOT AVBL
MULLAN PASS    CLOUDY    32  26  78 S6        30.56S WCI  26
$$




USA.gov is the U.S. government's official web portal to all federal, state and local government web resources and services.